{"data":{"norad_id":48666,"epoch":"2026-09-19T13:30:04.904064Z","epoch_age_seconds":118235,"freshness":"FRESH","line1":"1 48666U 21044AE  26262.56255676  .00000075  00000+0  14174-4 0  9993","line2":"2 48666  53.1604 293.2616 0001361  78.4706 281.6448 15.31704073293494","mean_motion":15.31704073,"eccentricity":0.0001361,"inclination_deg":53.1604,"raan_deg":293.2616,"arg_perigee_deg":78.4706,"mean_anomaly_deg":281.6448,"bstar":1.4174e-5,"rev_number":29349,"period_min":94.012937967816,"perigee_km":469.79572334489,"apogee_km":471.6599843581,"semimajor_km":6848.8648538515,"source":"CELESTRAK","updated_at":"2026-09-20T09:00:39.240358Z"}}